www.pogodaiklimat.ru

Погода и климат >> Архив погоды >> Россия >> Ленинградская область >> Шлиссельбург


ПОГОДА в Шлиссельбурге

  • Прогноз погоды в Шлиссельбурге
  • Монитор погоды в Шлиссельбурге

АРХИВ ПОГОДЫ в Шлиссельбурге

Время (UTC), дата Ветер
(напр.,м/с)
 
Видим.   Явления Облачность Т
(С)
Тd
(С)
f
(%)
Тe
(С)
Тes
(С)
Комфортность P
(гПа)
Po
(гПа)
Тmin
(С)
Tmax
(С)
R
(мм)
R24
(мм)
S
(см)
06 12.07 СЗ 1 20 км 10/8 700 м
[Cu Sc Ac trans Ci]
+12.3 +7.6 73 +12 +13 1007.4 1005.5 +5.6
09 12.07 СВ 1 20 км 9/5 600 м
[Sc Ac trans]
+13.8 +5.0 55 +14 +18 1007.3 1005.4
12 12.07 штиль 0 20 км в посл. час ливневой дождь 10/5 600 м
[Cb cap Ac und]
+12.6 +6.8 68 +12 +15 1007.3 1005.4
15 12.07 штиль 0 10 км слаб. ливневой дождь 10/5 600 м
[Cb cap Ac und]
+11.2 +10.0 92 +10 +11 1007.5 1005.6 2
18 12.07 ЮЗ 1 10 км слаб. ливневой дождь 10/8 1050 м
[Cb cap Ac und]
+10.6 +9.6 94 +10 +10 1007.7 1005.7 +16.8 4
21 12.07 Ю 1 10 км слаб. ливневой дождь 10/5 600 м
[Cb cap Ac und]
+10.2 +8.8 91 +10 +10 1007.7 1005.7
00 13.07 З 1 20 км {ливн. осадки} 10/3 600 м
[Sc Ac und]
+10.5 +8.9 90 +10 +10 1007.6 1005.6
03 13.07 штиль 0 20 км 8/8 1170 м
[Cb cap]
+10.6 +9.4 92 +10 +10 1007.5 1005.5 +9.8 0.1
06 13.07 С 1 20 км 9/5 600 м
[Sc Ac trans]
+13.4 +8.2 71 +14 +16 1007.6 1005.7 +9.8 0.1
09 13.07 штиль 0 20 км 10/5 600 м
[Cu Sc Ac und]
+14.0 +9.1 72 +14 +16 1008.0 1006.1
12 13.07 СВ 1 20 км в посл. час ливневой дождь 9/4 600 м
[Cb cap Ac trans]
+16.4 +10.4 68 +17 +21 1008.3 1006.4
15 13.07 штиль 0 20 км 9/0
[Ac trans]
+13.6 +7.5 67 +13 +16 1009.1 1007.2 0.0
18 13.07 штиль 0 20 км 9/0
[Ac trans]
+11.9 +7.1 72 +11 +12 1009.3 1007.4 +17.3 0.0
21 13.07 штиль 0 20 км 10/5 1000 м
[Sc Ac und]
+9.5 +7.8 89 +9 +9 1009.9 1007.9
00 14.07 ЮЗ 1 10 км 10/0
[Ac und]
+8.6 +7.3 92 +8 +8 1010.3 1008.3
03 14.07 ЮЗ 1 20 км 8/0
[Ac trans]
+9.4 +7.9 90 +9 +9 1010.5 1008.5 +7.3
06 14.07 СВ 1 20 км 4/3 1000 м
[Cu med, cong Ac trans]
+15.4 +8.1 62 +16 +21 1010.2 1008.3 +7.3
09 14.07 СВ 1 20 км слаб. ливневой дождь 10/5 1000 м
[Cb cap Ac trans Ci]
+16.4 +8.8 61 +17 +21 1011.2 1009.3
12 14.07 СВ 1 20 км {ливн. осадки} 10/3 1000 м
[Cb cap Ac trans Ci]
+17.1 +8.1 55 +18 +23 1011.0 1009.1
15 14.07 СВ 1 20 км 9/0
[Ac trans Ci]
+15.0 +7.1 59 +16 +18 1011.4 1009.5 0.5
18 14.07 штиль 0 20 км 8/0
[Ac trans Ci fib]
+12.1 +8.3 78 +12 +12 1011.3 1009.4 +18.1 0.5
21 14.07 штиль 0 20 км 9/0
[Ac trans]
+10.6 +9.2 91 +10 +10 1011.7 1009.7
00 15.07 штиль 0 20 км 9/0
[Ac trans]
+8.5 +7.4 93 +8 +8 1011.7 1009.7
03 15.07 штиль 0 20 км 9/0
[Ac trans]
+8.8 +7.5 92 +8 +9 1011.7 1009.7 +7.9
06 15.07 ЮЗ 1 20 км 10/0
[Ac trans Ci]
+14.8 +8.5 66 +15 +19 1011.5 1009.6 +7.9
09 15.07 штиль 0 20 км 10/5 1000 м
[Cb cap Ac trans Ci]
+17.0 +10.2 64 +17 +21 1011.4 1009.5
12 15.07 СВ 1 20 км {ливн. осадки} 10/3 1000 м
[Cb cap Ac trans Ci]
+17.3 +12.4 73 +18 +23 1011.1 1009.2
15 15.07 СВ 1 20 км 9/3 1000 м
[Cu hum Ac trans Ci]
+16.6 +10.6 68 +17 +19 1010.8 1008.9 1
18 15.07 штиль 0 20 км 8/0
[Ac trans Ci]
+16.3 +10.9 70 +16 +16 1010.6 1008.7 +19.6 1
21 15.07 штиль 0 20 км 6/0
[Ci]
+10.8 +9.4 91 +10 +10 1011.0 1009.0
00 16.07 штиль 0 4000 м дымка ясно +10.4 +10.0 97 +10 +10 1011.0 1009.0
03 16.07 штиль 0 10 км ясно +9.4 +8.8 96 +8 +10 1011.0 1009.0 +9.0
06 16.07 штиль 0 20 км ясно +16.5 +12.5 77 +16 +25 1011.0 1009.1 +8.8
09 16.07 СВ 1 20 км 6/6 930 м
[Cu med, cong]
+20.0 +11.5 58 +23 +29 комфорт 1010.7 1008.8
12 16.07 СВ 2 20 км 9/4 1000 м
[Cu med, cong Ci]
+21.2 +12.4 57 +23 +29 комфорт 1010.4 1008.5
15 16.07 СВ 1 20 км 9/3 1000 м
[Cu hum Ac trans Ci]
+20.5 +11.1 55 +23 +25 комфорт 1010.1 1008.2
18 16.07 СВ 1 20 км 6/4 1000 м
[Cb cap Ac trans]
+17.5 +12.5 72 +19 +19 1010.0 1008.1 +21.8
21 16.07 штиль 0 20 км 9/0
[Ac trans]
+16.9 +8.8 59 +17 +17 1009.9 1008.0
00 17.07 СВ 1 20 км 9/0
[Ac trans]
+13.4 +11.3 87 +14 +14 1009.9 1008.0
03 17.07 штиль 0 20 км 9/5 600 м
[Sc Ac trans]
+13.0 +10.9 87 +13 +13 1009.5 1007.6 +12.1
06 17.07 СВ 1 20 км в посл. час ливневой дождь 10/5 600 м
[Sc Ac und]
+15.0 +11.9 82 +16 +17 1009.4 1007.5 +12.1 0.5
09 17.07 СВ 1 20 км 10/0
[Ac und]
+16.1 +12.9 81 +17 +21 1008.8 1006.9
12 17.07 штиль 0 20 км в посл. час ливневой дождь 10/8 700 м
[Cb cap Ac und]
+16.2 +13.4 83 +16 +17 1008.9 1007.0
15 17.07 штиль 0 20 км {ливн. осадки} 9/0
[Ac trans]
+17.0 +15.3 90 +17 +19 1008.3 1006.4 4
18 17.07 штиль 0 20 км {ливн. осадки} 10/0
[Ac trans Ci]
+16.6 +14.5 87 +16 +17 1008.4 1006.5 +19.0 4
21 17.07 СВ 1 10 км 10/10 360 м
[St]
+16.2 +14.6 90 +17 +17 1007.9 1006.0
00 18.07 штиль 0 10 км 10/10 210 м
[St]
+16.1 +14.5 90 +16 +16 1007.7 1005.8
03 18.07 СВ 1 10 км 10/10 180 м
[St]
+16.1 +14.7 91 +17 +17 1007.2 1005.3 +15.9
06 18.07 СВ 1 20 км в посл. час дождь 10/8 210 м
[Frnb As trans]
+16.6 +14.9 90 +17 +18 1006.9 1005.0 +15.9 1
09 18.07 СВ 1 10 км слаб. ливневой дождь 10/8 300 м
[Cb cap Ac und]
+16.6 +15.8 95 +17 +18 1006.8 1004.9
12 18.07 СВ 3 10 км слаб. ливневой дождь 10/10 240 м
[Cb cap]
+15.8 +15.3 97 +15 +15 1005.8 1003.9
15 18.07 СВ 2 4000 м дождь {ливн. осадки} 10/10 270 м
[Frnb Ns]
+15.5 +15.2 98 +15 +15 1004.6 1002.7 16
18 18.07 С 1 4000 м слаб. морось {дождь} 10/10 120 м
[St]
+16.1 +15.9 99 +17 +17 1004.1 1002.2 +17.9 19
21 18.07 штиль 0 10 км слаб. морось 10/10 150 м
[St]
+16.4 +16.1 98 +16 +16 1004.3 1002.4
00 19.07 штиль 0 10 км {морось} 10/10 150 м
[St]
+16.4 +16.1 98 +16 +16 1004.6 1002.7
03 19.07 С 1 4000 м дымка 10/10 90 м
[St]
+16.0 +15.7 98 +17 +17 1004.6 +15.4 4

 

Местоположение метеостанции Шлиссельбург (Ленинградская область, Россия): широта 59.93 долгота 31.00 высота над уровнем моря 16 м.

В архиве по умолчанию представлена погода в Шлиссельбурге за последнюю неделю. Архивные данные за месяц целиком и за предыдущие месяцы, начиная с января 2011 года, Вы можете получить, выбрав интересующий диапазон дат из раскрывающегося списка и нажав кнопку "Ввод!".


*Определитесь, кто Вы:
робот инопланетянин человек

Внимание! Время в таблицах - всемирное. Для получения местного времени необходимо прибавить поправку, которая равна 3 ч.

Смотрите также архив погоды в соседних городах и на ближайших метеорологических станциях:

Погода в Воейково (город Санкт-Петербург, Россия) (17 км)
Погода в Санкт-Петербурге (город Санкт-Петербург, Россия) (39 км)
Погода в Лисьем Носу (город Санкт-Петербург, Россия) (58 км)
Погода в Любани (Ленинградская область, Россия) (66 км)
Погода в Ломоносове (город Санкт-Петербург, Россия) (68 км)
Погода в Кронштадте (город Санкт-Петербург, Россия) (69 км)
Погода в Новой Ладоге (Ленинградская область, Россия) (76 км)
Погода в Сосново (Ленинградская область, Россия) (79 км)
Погода в Киришах (Ленинградская область, Россия) (79 км)
Погода в Белогорке (Ленинградская область, Россия) (81 км)

Пояснения к столбцам:

Ветер - указаны скорость ветра в м/с - средняя за 10 мин, порывы в срок и между сроками (в фигурных скобках) и направление, откуда дует ветер: С - северный, СВ - северо-восточный, В - восточный, ЮВ - юго-восточный, Ю - южный, ЮЗ - юго-западный, З - западный, СЗ - северо-западный.
Видимость - горизонтальная дальность видимости в метрах или километрах. При видимости от 1 до 10 км при отсутствии осадков обычно наблюдается дымка, при ухудшении видимости до 1 км и менее - туман. В сухую погоду видимость может ухудшаться дымом, пылью или мглою.
Явления - указаны атмосферные явления, наблюдавшиеся в срок или в последний час перед сроком; фигурными скобками обозначены явления, наблюдавшиеся между сроками (за 1-3 часа до срока); квадратными скобками обозначены град или гололедные отложения с указанием их диаметра в мм.
Облачность - указаны через наклонную черту общая и нижняя облачность в баллах и высота нижней границы облаков в метрах; квадратными скобками обозначены формы облаков: Ci - перистые, Cs - перисто-слоистые, Cc - перисто-кучевые, Ac - высококучевые, As - высокослоистые, Sc - слоисто-кучевые, Ns - слоисто-дождевые, Cu - кучевые, Cb - кучево-дождевые. Подробнее классификацию облаков см. в Атласе облаков (PDF).
T - Температура воздуха - температура, измеренная на высоте 2 м над землей.
Td - Температура точки росы - температура, при понижении до которой содержащийся в воздухе водяной пар достигнет насыщения.
f - Относительная влажность воздуха - влажноcть воздуха, измеренная на высоте 2 м над землей.
Te - Эффективная температура - температура, которую ощущает одетый по сезону человек в тени. Характеристика душности погоды. При расчете учитывается влияние влажности воздуха и скорости ветра на теплоощущения человека.
Tes - Эффективная температура на солнце - температура, которую ощущает человек, с поправкой на солнечный нагрев. Характеристика знойности погоды. Зависит от высоты солнца над горизонтом, облачности и скорости ветра. Ночью, в пасмурную погоду, а также при ветре 12 м/с и более поправка равна нулю.
P - Атмосферное давление - приведенное к уровню моря атмосферное давление.
Po - Атмосферное давление - измеренное на уровне метеостанции атмосферное давление.
Tmin - Минимальная температура - минимум температуры воздуха на высоте 2 м над землей.
Tmax - Максимальная температура - максимум температуры воздуха на высоте 2 м над землей.
R - Количество осадков - Количество выпавших осадков за период времени, мм. При наведении курсора мыши на число - период времени, за который выпало указанное количество осадков.
R24 - Количество осадков - Количество выпавших осадков за 24 часа, мм.
S - Снежный покров - Высота снежного покрова, см. При наведении курсора мыши на число - состояние снежного покрова и степень покрытия местности в баллах.